Date,TemperatureHighF,TemperatureAvgF,TemperatureLowF,DewpointHighF,DewpointAvgF,DewpointLowF,HumidityHigh,HumidityAvg,HumidityLow,PressureMaxIn,PressureMinIn,WindSpeedMaxMPH,WindSpeedAvgMPH,GustSpeedMaxMPH,PrecipitationSumIn
2013-3-6,33.1,32.8,32.7,30.0,28.9,28.0,88,85,82,30.36,30.34,2,0,3,0.22
2013-3-7,38.8,33.0,23.8,30.0,26.4,20.0,89,78,57,30.52,30.35,3,0,6,0.30
2013-3-8,40.1,29.1,16.1,25.0,19.7,13.0,90,70,46,30.61,30.49,4,0,7,0.01
2013-3-9,42.9,35.1,25.1,32.0,26.4,19.0,79,71,56,30.48,30.04,6,1,10,0.00
2013-3-10,58.4,47.8,37.8,43.0,38.1,32.0,89,70,55,30.03,29.77,5,1,10,0.08
2013-3-11,50.5,44.1,34.1,47.0,40.0,29.0,92,86,70,29.83,29.60,7,2,15,0.13
2013-3-12,36.8,32.9,29.3,30.0,26.5,21.0,89,78,56,30.05,29.83,6,2,10,0.01
2013-3-13,30.9,27.0,24.7,26.0,18.5,12.0,87,71,51,30.41,30.05,5,2,14,0.08
2013-3-14,42.6,32.3,21.4,28.0,19.0,13.0,81,60,38,30.43,30.23,4,1,7,0.02
2013-3-15,48.0,37.5,29.7,38.0,32.1,27.0,90,81,60,30.22,29.88,3,0,6,0.10
2013-3-16,38.9,34.4,29.3,37.0,29.7,20.0,92,83,67,30.19,29.75,3,1,8,0.00
2013-3-17,37.6,31.9,28.2,23.0,19.2,17.0,72,60,46,30.31,30.17,7,1,12,0.00
2013-3-18,34.9,31.2,27.8,33.0,26.5,18.0,92,83,67,30.16,29.68,8,2,14,0.06
2013-3-19,35.2,26.8,20.2,19.0,12.7,10.0,72,57,38,30.14,29.84,11,3,19,0.00
2013-3-20,29.0,23.1,18.4,15.0,10.7,6.0,82,60,45,30.15,30.09,9,2,13,0.00
2013-3-21,30.4,23.3,16.4,19.0,14.8,11.0,87,71,50,30.14,30.07,6,1,11,0.08
2013-3-22,39.2,29.6,19.4,20.0,15.7,9.0,84,59,30,30.18,30.11,5,1,9,0.00
2013-3-23,40.2,30.4,21.4,25.0,20.3,18.0,88,68,49,30.24,30.11,4,1,9,0.00
2013-3-24,37.6,32.4,27.6,25.0,22.3,20.0,76,67,52,30.12,29.70,12,2,15,0.00
2013-3-25,36.6,32.7,28.5,29.0,26.8,22.0,88,79,68,30.09,29.70,5,0,8,0.00
2013-3-26,41.7,34.3,31.4,32.0,29.5,28.0,92,83,63,30.31,30.09,3,0,7,0.01
2013-3-27,45.2,35.6,26.7,33.0,26.3,19.0,93,72,42,30.40,30.31,5,0,9,0.00
2013-3-28,51.2,36.0,24.4,29.0,22.3,20.0,85,61,34,30.43,30.37,3,0,6,0.00
2013-3-29,54.3,39.2,24.1,28.0,22.0,19.0,92,56,27,30.42,30.32,4,0,5,0.00
2013-3-30,57.9,41.4,24.2,36.0,27.7,20.0,88,61,36,30.34,29.99,3,0,8,0.00
2013-3-31,60.5,49.0,38.7,44.0,37.4,29.0,98,67,37,29.98,29.74,5,1,9,0.00
2013-4-1,38.3,33.4,24.7,31.0,19.9,15.0,80,59,41,30.24,29.89,5,1,9,0.00
2013-4-2,42.7,32.1,23.9,22.0,15.7,9.0,82,55,27,30.39,30.24,5,0,9,0.00
2013-4-3,51.3,34.9,20.0,20.0,16.0,11.0,84,51,21,30.54,30.39,2,0,6,0.00
2013-4-4,59.7,41.7,23.5,25.0,20.0,17.0,82,48,21,30.44,30.06,3,0,5,0.00
2013-4-5,55.0,42.7,31.6,32.0,26.7,19.0,85,57,27,30.29,30.04,3,0,7,0.00
2013-4-6,66.9,49.4,31.6,45.0,31.2,25.0,79,52,34,30.25,29.78,6,1,13,0.00
2013-4-7,61.6,52.3,42.7,47.0,40.8,36.0,87,66,49,30.04,29.72,9,1,13,0.02
2013-4-8,68.6,51.5,40.9,57.0,44.3,35.0,96,78,57,30.07,29.75,8,1,14,0.10
2013-4-9,77.1,56.4,40.5,62.0,49.7,39.0,96,79,56,30.09,29.87,9,0,10,0.00
2013-4-10,56.3,47.5,41.2,52.0,45.4,40.0,97,92,85,30.00,29.89,2,0,5,0.29
2013-4-11,43.0,42.0,39.7,43.0,41.4,39.0,99,98,96,29.94,29.67,4,0,7,1.69
2013-4-12,43.3,39.4,36.8,40.0,36.9,32.0,99,91,78,29.92,29.66,5,1,9,0.13
2013-4-13,43.6,38.3,33.7,34.0,31.4,29.0,95,77,59,30.08,29.93,6,1,9,0.02
2013-4-14,63.2,48.0,37.5,48.0,38.9,30.0,83,71,56,30.13,29.86,4,1,9,0.00
2013-4-15,67.1,57.7,46.1,57.0,51.6,45.0,98,81,71,29.99,29.85,6,1,8,0.32
2013-4-16,54.6,46.8,41.4,45.0,40.3,34.0,98,80,53,30.31,30.00,3,0,5,0.49
2013-4-17,54.0,47.7,43.3,47.0,41.3,35.0,98,79,63,30.34,29.97,3,0,10,0.92
2013-4-18,70.8,58.5,46.5,66.0,57.1,46.0,100,95,79,29.95,29.56,7,1,13,1.04
2013-4-19,54.1,38.5,34.0,53.0,33.9,30.0,97,84,74,29.94,29.55,9,3,14,0.20
2013-4-20,44.4,36.4,29.7,31.0,24.2,19.0,89,63,41,30.53,29.95,5,1,9,0.01
2013-4-21,53.9,39.6,24.2,32.0,25.7,20.0,86,60,39,30.66,30.48,6,1,8,0.00
2013-4-22,67.4,50.9,32.3,38.0,33.7,29.0,90,57,28,30.48,30.18,3,1,9,0.00
2013-4-23,67.0,51.8,39.0,55.0,44.6,37.0,97,78,54,30.18,29.91,5,0,9,0.48
2013-4-24,46.9,39.3,35.2,38.0,32.5,25.0,98,79,46,30.24,29.92,4,0,9,0.06
2013-4-25,52.7,43.8,37.0,37.0,32.6,29.0,81,66,45,30.43,30.19,6,1,9,0.00
2013-4-26,65.6,49.6,30.5,42.0,36.1,29.0,94,64,40,30.50,30.37,5,1,8,0.00
2013-4-27,70.9,57.3,38.3,47.0,40.7,35.0,94,58,28,30.40,30.10,3,0,9,0.00
2013-4-28,60.4,55.4,50.3,55.0,51.7,47.0,96,87,65,30.10,29.88,2,0,2,0.09
2013-4-29,76.8,61.0,48.2,59.0,52.8,48.0,100,78,45,30.01,29.92,2,0,6,0.00
2013-4-30,84.8,69.0,56.6,62.0,57.4,52.0,85,68,45,30.03,29.92,6,1,9,0.00
2013-5-1,87.2,73.8,58.8,60.0,56.5,54.0,84,58,34,30.19,30.03,3,0,9,0.00
2013-5-2,86.9,66.8,45.7,61.0,54.5,42.0,87,67,38,30.21,30.12,4,0,6,0.00
2013-5-3,80.1,61.4,43.7,61.0,50.3,40.0,90,70,47,30.16,30.00,6,0,8,0.00
2013-5-4,75.2,66.1,59.7,52.0,46.1,41.0,63,50,32,30.07,30.01,5,0,9,0.00
2013-5-5,77.6,64.5,51.4,50.0,45.6,42.0,74,52,33,30.08,30.01,4,0,10,0.00
2013-5-6,80.7,66.6,56.2,52.0,44.3,36.0,63,47,20,30.07,29.97,3,0,7,0.00
2013-5-7,81.4,65.8,50.4,56.0,50.0,44.0,91,60,37,30.08,30.00,2,0,5,0.00
2013-5-8,83.4,68.3,52.5,56.0,50.6,46.0,91,56,34,30.08,30.00,3,0,9,0.00
2013-5-9,83.7,64.8,49.3,61.0,52.7,47.0,94,69,32,30.03,29.92,2,0,5,0.05
2013-5-10,61.4,54.2,43.5,61.0,52.3,43.0,98,93,79,29.99,29.80,4,1,8,0.09
2013-5-11,55.1,45.9,38.7,51.0,42.0,35.0,98,87,61,30.07,29.90,2,0,11,0.00
2013-5-12,50.5,42.4,36.3,36.0,31.5,29.0,92,67,44,30.20,30.07,4,1,10,0.00
2013-5-13,61.4,48.2,31.8,34.0,29.7,23.0,95,54,26,30.27,30.15,3,0,8,0.00
2013-5-14,84.7,67.7,50.8,61.0,44.9,26.0,63,45,36,30.15,29.72,4,1,9,0.00
2013-5-15,81.1,73.7,61.6,63.0,55.9,49.0,89,56,35,29.85,29.68,5,1,8,0.04
2013-5-16,85.7,69.1,52.1,53.0,49.5,44.0,95,56,25,30.01,29.85,3,0,6,0.00
2013-5-17,82.8,68.4,57.2,63.0,50.6,43.0,89,55,32,30.10,30.01,3,0,12,0.07
2013-5-18,82.4,69.4,58.7,62.0,52.7,41.0,75,56,47,30.14,30.01,2,0,7,0.00
2013-5-19,88.3,75.7,58.8,65.0,60.0,52.0,78,60,42,30.04,29.84,4,0,7,0.00
2013-5-20,88.9,79.7,70.3,71.0,66.9,63.0,90,66,43,29.89,29.79,6,1,9,0.00
2013-5-21,82.1,73.3,63.1,68.0,65.1,62.0,99,77,58,29.83,29.73,3,1,8,0.67
2013-5-22,74.4,68.7,64.0,67.0,64.3,59.0,96,86,70,29.77,29.69,3,0,8,0.15
2013-5-23,63.8,50.7,41.9,60.0,48.9,40.0,97,93,87,30.28,29.77,4,0,9,0.00
2013-5-24,58.2,47.9,36.3,44.0,38.9,35.0,97,74,45,30.48,30.29,6,0,6,0.00
2013-5-25,67.0,53.1,38.4,48.0,42.1,37.0,96,70,39,30.48,30.34,3,0,3,0.00
2013-5-26,72.6,59.4,42.5,53.0,42.7,40.0,95,59,34,30.39,30.23,4,0,8,0.00
2013-5-27,61.3,55.9,50.9,55.0,51.2,39.0,98,86,45,30.25,29.97,6,1,11,0.61
2013-5-28,78.2,68.3,55.8,71.0,65.1,55.0,100,90,73,29.98,29.83,3,0,8,0.41
2013-5-29,83.3,78.7,72.4,70.0,66.9,64.0,76,67,58,30.00,29.96,5,0,5,0.09
2013-5-30,85.8,77.8,68.1,71.0,66.9,63.0,86,70,55,30.04,29.91,4,1,12,0.00
2013-5-31,77.3,71.5,64.9,69.0,66.2,63.0,97,84,72,29.99,29.76,6,1,10,0.57
2013-6-1,74.2,69.0,63.4,66.0,64.2,61.0,98,85,70,29.87,29.74,6,1,8,0.19
2013-6-2,63.8,57.0,45.3,61.0,52.1,42.0,96,84,68,30.09,29.75,3,0,7,0.00
2013-6-3,68.4,55.3,41.3,51.0,44.7,41.0,98,71,43,30.18,30.09,3,0,8,0.00
2013-6-4,75.0,61.6,44.8,52.0,47.2,43.0,96,63,39,30.25,30.15,3,0,7,0.00
2013-6-5,79.0,68.1,57.6,56.0,49.9,46.0,73,53,39,30.18,29.97,5,0,8,0.00
2013-6-6,77.1,65.2,58.9,57.0,52.0,43.0,82,63,43,29.99,29.88,2,0,7,0.00
2013-6-7,74.2,63.7,52.3,58.0,52.8,46.0,93,70,48,29.97,29.91,2,0,4,0.00
2013-6-8,78.0,64.7,50.4,57.0,52.4,47.0,94,67,41,30.07,29.96,2,0,4,0.00
2013-6-9,83.0,71.7,60.0,65.0,59.0,53.0,87,66,45,30.08,29.89,4,0,8,0.00
2013-6-10,74.6,68.2,63.8,68.0,65.1,62.0,99,90,74,29.91,29.79,4,0,7,0.53
2013-6-11,83.1,70.7,60.5,68.0,63.7,60.0,99,80,56,29.98,29.87,2,0,4,0.00
2013-6-12,87.4,75.4,66.1,76.0,70.1,65.0,98,84,66,29.94,29.65,2,0,8,0.39
2013-6-13,74.7,66.3,57.4,64.0,59.9,54.0,99,81,55,30.05,29.56,4,0,12,0.31
2013-6-14,78.6,65.5,52.5,62.0,57.3,52.0,98,77,51,30.16,30.04,3,0,5,0.00
2013-6-15,76.1,66.7,58.1,66.0,61.9,57.0,97,85,66,30.13,29.95,2,0,6,0.00
2013-6-16,81.2,74.0,67.3,69.0,65.0,58.0,91,75,51,29.95,29.91,3,0,6,0.00
2013-6-17,87.6,76.3,65.3,69.0,62.4,54.0,97,66,33,29.98,29.89,2,0,5,0.00
2013-6-18,77.4,68.4,61.2,64.0,60.2,51.0,97,77,54,30.09,29.91,1,0,6,0.01
2013-6-19,79.7,67.1,52.9,53.0,48.9,46.0,82,55,34,30.21,30.09,2,0,4,0.00
2013-6-20,89.0,72.6,56.2,65.0,57.8,50.0,88,62,35,30.23,30.15,2,0,5,0.00
2013-6-21,87.9,75.0,68.2,70.0,65.2,61.0,95,74,43,30.20,30.02,3,0,8,0.08
2013-6-22,84.7,75.4,68.1,74.0,70.1,65.0,95,84,70,30.13,30.02,3,0,5,0.00
2013-6-23,87.6,77.9,66.9,72.0,67.7,65.0,94,72,51,30.11,30.00,3,0,6,0.00
2013-6-24,85.3,75.5,65.7,73.0,68.4,65.0,97,79,57,30.11,29.96,8,0,17,0.30
2013-6-25,87.9,74.2,65.8,77.0,70.6,65.0,100,90,64,30.02,29.84,5,0,8,0.54
2013-6-26,82.9,72.7,64.7,74.0,68.9,64.0,100,88,65,29.95,29.76,3,0,8,0.33
2013-6-27,84.8,74.1,66.2,74.0,69.6,66.0,100,87,65,29.81,29.70,5,0,9,0.00
2013-6-28,79.8,71.9,64.5,68.0,64.6,62.0,99,79,57,29.72,29.62,6,1,10,0.00
2013-6-29,78.9,66.9,61.9,68.0,63.8,61.0,98,90,63,29.77,29.60,3,0,6,0.44
2013-6-30,79.2,68.2,61.1,69.0,62.6,58.0,99,84,55,29.99,29.77,2,0,5,0.04
2013-7-1,79.6,67.1,55.8,63.0,55.4,48.0,89,67,49,30.09,29.99,1,0,7,0.00
2013-7-2,65.5,62.3,58.4,63.0,59.1,54.0,99,90,67,30.10,30.06,2,0,3,0.64
2013-7-3,77.3,69.5,62.2,68.0,64.9,62.0,100,86,66,30.13,30.05,5,0,7,0.00
2013-7-4,80.0,70.5,59.9,65.0,63.1,60.0,100,79,56,30.18,30.11,3,0,4,0.00
2013-7-5,83.4,73.3,62.5,70.0,66.2,62.0,99,80,58,30.16,30.07,3,0,4,0.00
2013-7-6,80.8,74.1,68.6,72.0,68.9,67.0,94,84,69,30.12,30.03,2,0,6,0.00
2013-7-7,83.8,75.6,68.3,75.0,70.1,67.0,94,83,66,30.08,30.01,3,0,4,0.00
2013-7-8,80.8,75.8,70.3,75.0,71.5,68.0,95,86,80,30.09,29.99,2,0,6,0.10
2013-7-9,87.5,77.3,70.8,78.0,74.4,70.0,100,91,72,30.04,29.92,3,0,9,0.10
2013-7-10,81.7,76.1,63.4,78.0,70.1,58.0,97,82,57,30.02,29.87,3,0,9,0.00
2013-7-11,82.0,68.3,57.8,65.0,58.1,54.0,99,73,45,30.13,30.02,4,0,8,0.00
2013-7-12,86.4,70.5,55.9,64.0,58.4,55.0,99,70,40,30.20,30.11,4,0,5,0.00
2013-7-13,86.4,74.2,59.5,67.0,63.0,58.0,96,70,47,30.21,30.16,5,0,7,0.00
2013-7-14,90.8,79.9,66.8,72.0,68.9,65.0,94,71,49,30.25,30.20,5,1,6,0.00
2013-7-15,91.1,80.3,72.2,79.0,74.8,70.0,95,83,63,30.30,30.25,1,0,4,0.00
2013-7-16,92.2,83.0,72.5,76.0,73.3,71.0,98,75,53,30.36,30.28,4,0,5,0.00
2013-7-17,92.0,83.4,73.5,77.0,74.0,72.0,94,74,58,30.35,30.20,5,0,5,0.00
2013-7-18,93.1,82.6,74.7,80.0,75.0,72.0,97,79,56,30.22,30.01,4,0,9,0.00
2013-7-19,94.2,85.3,76.6,77.0,74.3,71.0,91,71,48,30.01,29.79,5,1,10,0.00
2013-7-20,89.9,81.1,72.1,75.0,68.3,62.0,90,67,44,29.95,29.78,3,0,6,0.00
2013-7-21,88.8,78.1,66.9,69.0,65.5,63.0,87,67,46,30.01,29.90,3,0,6,0.00
2013-7-22,84.8,74.2,65.9,72.0,67.6,65.0,98,81,57,29.96,29.79,4,0,6,0.00
2013-7-23,79.4,71.6,59.7,70.0,65.1,55.0,96,81,63,29.97,29.74,5,1,8,0.00
2013-7-24,75.9,63.6,50.9,57.0,52.6,49.0,93,70,46,30.10,29.98,1,0,4,0.00
2013-7-25,78.3,66.5,53.7,60.0,55.9,52.0,97,71,48,30.17,30.09,3,0,4,0.00
2013-7-26,76.8,68.4,60.5,64.0,60.2,57.0,91,76,57,30.12,29.94,3,0,6,0.00
2013-7-27,71.6,64.5,58.6,65.0,59.0,50.0,96,83,70,29.95,29.87,7,1,9,0.00
2013-7-28,66.9,59.0,51.6,53.0,50.8,48.0,89,75,59,30.07,29.92,4,1,6,0.00
2013-7-29,72.8,61.8,55.6,59.0,54.6,51.0,86,78,63,30.24,30.07,4,0,6,0.00
2013-7-30,81.4,67.3,53.8,63.0,58.6,53.0,98,76,48,30.27,30.15,1,0,4,0.00
2013-7-31,69.2,67.0,63.6,68.0,65.1,62.0,99,93,81,30.15,29.99,2,0,5,0.00
2013-8-1,79.5,69.5,61.6,67.0,60.1,55.0,100,75,45,30.02,29.98,5,0,6,0.00
2013-8-2,78.6,66.0,57.2,71.0,62.9,55.0,98,90,75,30.02,29.88,3,0,8,0.00
2013-8-3,79.6,70.5,60.7,68.0,60.9,53.0,99,75,44,30.13,29.97,3,0,7,0.00
2013-8-4,77.2,66.1,55.0,59.0,55.5,53.0,99,72,46,30.25,30.13,3,0,7,0.00
2013-8-5,74.5,65.0,53.5,64.0,57.2,50.0,95,77,52,30.19,29.98,3,0,5,0.00
2013-8-6,79.3,70.1,62.2,71.0,66.5,62.0,99,89,74,29.99,29.91,4,0,5,0.00
2013-8-7,87.0,71.9,67.3,75.0,69.8,67.0,100,93,67,29.96,29.86,2,0,26,0.00
2013-8-8,81.5,70.3,61.9,68.0,64.3,59.0,100,83,60,30.05,29.96,2,0,3,0.00
2013-8-9,79.7,71.0,60.7,64.0,61.8,59.0,96,74,52,30.05,30.01,2,0,6,0.00
2013-8-10,84.1,74.0,65.0,67.0,63.9,58.0,95,72,48,30.15,30.06,2,0,5,0.00
2013-8-11,81.0,70.1,59.0,63.0,59.5,57.0,94,71,50,30.18,30.09,2,0,9,0.00
2013-8-12,83.2,73.5,66.7,70.0,66.0,63.0,97,78,59,30.11,29.89,3,0,6,0.00
2013-8-13,70.3,64.1,55.7,66.0,55.1,49.0,98,75,49,30.17,29.93,5,0,11,0.00
2013-8-14,71.1,59.8,48.4,52.0,49.8,46.0,92,72,48,30.27,30.17,4,0,7,0.00
2013-8-15,74.6,61.6,49.0,56.0,52.5,48.0,97,75,49,30.25,30.16,2,0,5,0.00
2013-8-16,83.4,67.7,52.0,57.0,53.5,51.0,98,66,34,30.24,30.19,2,0,4,0.00
2013-8-17,82.3,69.2,54.3,62.0,56.5,53.0,96,68,40,30.30,30.21,5,0,7,0.00
2013-8-18,86.1,71.2,57.2,65.0,59.4,55.0,94,69,41,30.26,30.15,1,0,5,0.00
2013-8-19,84.1,71.6,59.1,66.0,61.6,58.0,95,73,47,30.18,30.09,3,0,5,0.00
2013-8-20,88.2,75.5,63.3,69.0,65.5,62.0,95,73,49,30.19,30.11,2,0,6,0.00
2013-8-21,88.8,78.7,68.1,71.0,67.3,65.0,90,69,47,30.16,30.02,5,0,5,0.00
2013-8-22,77.6,71.1,66.4,72.0,68.1,66.0,99,90,72,30.15,30.00,3,0,9,0.00
2013-8-23,86.8,73.5,63.8,67.0,60.2,52.0,99,68,35,30.22,30.13,2,0,7,0.00
2013-8-24,85.2,70.8,56.5,59.0,56.8,54.0,96,66,37,30.34,30.22,5,0,8,0.00
2013-8-25,88.0,74.4,58.6,67.0,62.3,56.0,94,68,45,30.34,30.20,3,0,6,0.00
2013-8-26,88.9,78.0,67.2,74.0,67.9,62.0,82,72,59,30.23,30.05,4,0,6,0.00
2013-8-27,92.5,81.2,72.4,77.0,72.0,69.0,91,75,52,30.05,29.88,3,0,7,0.00
2013-8-28,87.3,79.4,71.1,76.0,72.1,68.0,95,78,69,30.05,29.87,3,0,6,0.00
2013-8-29,91.6,78.1,65.4,72.0,67.7,63.0,99,74,40,30.11,30.02,4,0,5,0.00
2013-8-30,92.8,79.9,67.9,76.0,70.8,66.0,95,76,52,30.03,29.78,3,0,7,0.00
2013-8-31,84.4,74.9,69.1,72.0,70.0,67.0,94,85,64,29.89,29.80,1,0,6,0.00
2013-9-1,85.5,76.3,68.1,73.0,70.4,67.0,98,83,64,29.85,29.77,3,0,5,0.00
2013-9-2,80.8,70.8,60.4,70.0,63.5,55.0,98,79,56,30.02,29.79,3,0,8,0.00
2013-9-3,76.1,65.1,56.2,59.0,55.9,53.0,90,74,53,30.12,30.01,2,0,6,0.00
2013-9-4,80.1,67.5,54.9,62.0,56.5,53.0,97,72,39,30.18,30.10,3,0,7,0.00
2013-9-5,83.9,69.5,58.7,59.0,52.0,41.0,95,59,24,30.29,30.16,4,0,4,0.00
2013-9-6,83.7,68.3,51.8,63.0,54.5,47.0,85,63,39,30.31,30.10,4,0,6,0.00
2013-9-7,89.1,74.4,64.3,70.0,63.8,56.0,89,71,45,30.10,29.95,3,0,4,0.00
2013-9-8,78.9,71.7,65.0,69.0,65.9,63.0,98,82,68,30.07,29.98,4,0,7,0.00
2013-9-9,92.0,76.8,64.5,75.0,66.5,57.0,85,71,56,30.06,29.89,4,1,7,0.00
2013-9-10,96.6,85.7,75.9,72.0,69.0,65.0,85,60,35,30.05,29.93,4,1,7,0.00
2013-9-11,95.1,79.9,72.0,74.0,71.1,67.0,95,76,40,30.08,29.97,3,0,9,0.00
2013-9-12,82.9,72.0,61.1,71.0,61.3,52.0,98,72,37,30.07,29.91,3,0,8,0.00
2013-9-13,66.7,58.7,50.3,51.0,46.0,43.0,84,64,45,30.20,30.07,3,0,8,0.00
2013-9-14,72.5,57.2,42.5,46.0,42.7,38.0,95,63,32,30.28,30.13,2,0,5,0.00
2013-9-15,64.4,57.9,53.2,59.0,49.0,40.0,94,73,56,30.20,30.08,1,0,3,0.00
2013-9-16,72.5,60.5,52.7,55.0,51.3,46.0,96,75,43,30.40,30.20,2,0,4,0.00
2013-9-17,74.0,58.8,44.4,51.0,47.5,43.0,95,69,42,30.43,30.24,3,0,7,0.00
2013-9-18,81.6,68.3,55.2,65.0,55.9,48.0,87,66,45,30.23,30.02,2,0,7,0.00
2013-9-19,72.6,67.9,65.3,70.0,66.9,65.0,100,96,88,30.07,29.90,4,0,6,0.00
2013-9-20,74.3,70.7,63.0,72.0,67.8,58.0,95,90,81,29.92,29.80,3,0,7,0.00
2013-9-21,65.7,59.8,52.1,58.0,53.3,49.0,95,80,60,29.96,29.80,4,0,13,0.00
2013-9-22,67.5,57.2,48.6,52.0,47.9,44.0,95,73,49,30.13,29.97,3,0,5,0.00
2013-9-23,70.7,55.6,41.6,50.0,45.9,41.0,96,73,45,30.21,30.12,3,0,8,0.00
2013-9-24,72.0,58.0,44.6,52.0,47.2,43.0,95,70,43,30.18,30.01,4,0,5,0.00
2013-9-25,76.7,61.2,47.7,55.0,50.4,46.0,96,71,39,30.05,29.98,2,0,6,0.00
2013-9-26,81.3,63.2,46.8,56.0,50.1,46.0,98,68,33,30.16,30.03,2,0,5,0.00
2013-9-27,81.0,64.4,47.8,56.0,50.8,44.0,88,65,36,30.26,30.15,2,0,8,0.00
2013-9-28,82.6,68.1,52.2,59.0,55.0,51.0,95,66,40,30.20,30.01,6,0,8,0.00
2013-9-29,71.0,63.2,52.0,62.0,55.9,50.0,97,78,62,30.07,29.98,2,0,6,0.00
2013-9-30,74.0,59.6,46.0,55.0,51.2,46.0,100,77,45,30.08,29.97,1,0,5,0.00
2013-10-1,76.4,65.7,58.1,66.0,61.6,54.0,98,87,68,30.06,29.98,5,0,5,0.00
2013-10-2,82.9,71.3,61.9,65.0,59.8,52.0,99,72,35,30.14,30.02,2,0,3,0.00
2013-10-3,74.9,67.8,63.1,70.0,65.2,59.0,99,91,79,30.07,29.93,2,0,5,0.00
2013-10-4,79.0,71.7,64.9,73.0,68.0,63.0,95,88,80,30.06,29.96,3,0,6,0.00
2013-10-5,78.7,69.7,65.0,73.0,68.4,65.0,100,95,80,30.02,29.86,12,0,12,0.00
2013-10-6,66.7,58.9,47.1,66.0,55.5,42.0,99,89,69,29.87,29.74,4,0,10,0.00
2013-10-7,61.8,50.2,44.6,48.0,43.0,40.0,89,77,55,30.19,29.82,5,1,9,0.04
2013-10-8,73.0,57.5,44.6,51.0,46.1,41.0,92,69,39,30.30,30.19,4,0,5,0.04
2013-10-9,70.3,56.7,43.5,49.0,44.8,41.0,91,68,38,30.35,30.23,5,0,7,0.01
2013-10-10,73.9,57.9,43.9,52.0,46.7,42.0,93,69,40,30.27,30.15,0,0,3,0.01
2013-10-11,74.6,59.2,45.1,50.0,46.0,41.0,93,66,31,30.19,30.07,3,0,6,0.01
2013-10-12,78.3,64.1,49.9,62.0,53.8,47.0,93,71,45,30.18,30.05,2,0,8,0.01
2013-10-13,64.5,54.2,42.6,54.0,43.4,38.0,92,70,41,30.46,30.18,3,0,7,0.01
2013-10-14,63.4,49.8,37.2,46.0,41.0,35.0,94,74,47,30.49,30.29,5,0,10,0.00
2013-10-15,63.9,56.0,46.7,60.0,51.5,42.0,92,85,75,30.29,29.89,4,0,8,0.01
2013-10-16,61.8,51.4,44.8,59.0,45.5,41.0,91,80,73,30.01,29.90,4,0,8,0.00
2013-10-17,51.4,49.2,43.3,47.0,44.4,40.0,90,83,76,30.00,29.88,3,0,10,0.01
2013-10-18,58.3,46.0,38.0,48.0,40.7,36.0,93,82,63,30.04,29.95,5,0,6,0.00
2013-10-19,52.0,45.7,41.2,43.0,38.8,32.0,97,79,48,30.01,29.86,4,0,7,0.00
2013-10-20,61.1,51.3,40.6,46.0,41.5,37.0,88,71,53,29.99,29.86,5,0,8,0.00
2013-10-21,57.0,49.2,40.5,47.0,41.2,29.0,89,74,62,30.02,29.89,4,1,7,0.00
2013-10-22,47.2,38.1,30.0,35.0,30.1,26.0,89,74,49,30.07,30.00,3,0,7,0.00
2013-10-23,42.7,37.2,32.7,38.0,34.2,30.0,97,89,62,30.10,29.94,6,0,7,0.00
2013-10-24,41.1,35.9,32.3,36.0,33.2,31.0,98,90,77,30.36,30.08,2,0,6,0.00
2013-10-25,47.7,39.0,29.1,36.0,30.8,27.0,97,75,46,30.49,30.22,4,0,8,0.00
2013-10-26,52.5,44.5,39.8,40.0,33.5,29.0,78,66,58,30.22,29.93,8,2,12,0.00
2013-10-27,54.0,43.7,32.9,36.0,32.6,31.0,92,68,43,30.16,30.07,3,0,5,0.00
2013-10-28,58.1,44.3,31.4,41.0,35.4,29.0,95,73,50,30.44,30.13,2,0,5,0.00
2013-10-29,54.9,43.6,33.8,42.0,37.5,32.0,92,80,60,30.48,30.28,3,0,7,0.00
2013-10-30,60.4,51.3,38.7,58.0,48.0,37.0,99,89,78,30.28,29.93,3,0,7,0.00
2013-10-31,63.0,59.7,51.3,63.0,59.2,51.0,100,98,93,29.91,29.27,7,1,12,0.00
2013-11-1,51.0,46.5,44.7,51.0,43.4,40.0,98,89,75,29.79,29.35,4,1,10,0.00
2013-11-2,48.3,43.8,40.1,45.0,41.9,38.0,98,93,81,30.17,29.78,3,0,6,0.00
2013-11-3,50.8,43.3,38.7,40.0,38.2,36.0,97,83,65,30.43,30.17,6,1,9,0.00
2013-11-4,53.1,46.0,37.9,43.0,37.4,33.0,89,73,56,30.45,30.29,5,1,10,0.02
2013-11-5,55.3,52.4,49.9,49.0,46.1,43.0,85,79,73,30.40,30.15,3,1,10,0.00
2013-11-6,57.6,50.9,41.6,53.0,46.3,37.0,92,85,59,30.16,29.88,5,1,12,0.02
2013-11-7,46.2,39.6,32.7,36.0,29.9,25.0,86,69,47,30.31,30.16,4,0,9,0.12
2013-11-8,47.3,38.9,30.3,32.0,30.1,27.0,90,72,51,30.43,30.20,4,0,8,0.18
2013-11-9,59.0,50.2,42.2,40.0,34.8,29.0,64,56,44,30.19,29.96,11,2,18,0.08
2013-11-10,47.0,40.9,32.2,32.0,29.1,25.0,86,64,47,30.40,30.10,6,1,20,0.05
2013-11-11,46.1,38.3,28.8,38.0,30.6,22.0,90,75,61,30.50,30.18,3,1,10,0.15
2013-11-12,32.1,27.3,21.9,27.0,21.1,15.0,85,78,66,30.74,30.50,2,0,5,0.01
2013-11-13,37.6,27.8,18.9,20.0,16.6,13.0,82,64,43,30.71,30.34,8,2,14,0.01
2013-11-14,51.6,40.2,31.3,24.0,20.3,17.0,58,46,31,30.34,30.09,6,2,13,0.03
2013-11-15,50.4,44.9,39.8,32.0,27.2,22.0,67,50,38,30.14,30.06,4,1,13,0.00
2013-11-16,57.8,49.3,39.5,55.0,43.9,31.0,91,82,67,30.10,29.76,7,1,13,0.06
2013-11-17,64.3,57.6,46.0,60.0,52.5,36.0,93,83,68,29.76,29.29,8,3,24,0.56
2013-11-18,45.4,39.3,36.0,36.0,29.8,24.0,82,69,61,30.30,29.74,11,2,14,0.01
2013-11-19,44.1,37.1,31.3,26.0,25.0,23.0,75,62,45,30.46,30.30,3,0,6,0.00
2013-11-20,43.8,35.9,27.6,36.0,26.7,23.0,83,70,53,30.46,30.26,6,1,13,0.01
2013-11-21,50.5,45.1,40.1,45.0,40.5,36.0,93,84,72,30.32,30.25,3,0,5,0.24
2013-11-22,46.2,38.8,28.2,45.0,35.4,24.0,94,87,75,30.51,30.25,6,1,11,0.18
2013-11-23,30.1,25.3,19.5,26.0,17.9,11.0,86,74,58,30.71,30.45,8,1,14,0.00
2013-11-24,25.8,21.3,18.6,17.0,10.2,1.0,85,64,38,30.77,30.55,3,0,9,0.00
2013-11-25,31.0,26.1,19.7,25.0,15.2,5.0,87,64,51,30.55,30.23,6,1,13,0.00
2013-11-26,32.8,30.3,26.7,27.0,23.4,16.0,83,76,56,30.23,30.08,4,1,9,0.01
2013-11-27,28.2,25.1,21.3,23.0,19.5,17.0,86,79,65,30.35,30.13,3,0,10,0.00
2013-11-28,31.8,25.6,21.9,21.0,15.8,12.0,82,67,53,30.56,30.33,3,0,8,0.00
2013-11-29,35.2,29.7,26.0,21.0,19.7,18.0,77,67,52,30.75,30.56,2,0,6,0.14
2013-11-30,47.4,36.6,26.4,30.0,25.5,21.0,81,65,49,30.58,30.18,7,0,8,0.17
2013-12-1,42.6,35.6,27.8,33.0,27.6,24.0,85,73,62,30.19,30.09,6,0,6,0.04
2013-12-2,41.1,33.8,26.6,30.0,27.4,23.0,89,78,58,30.09,29.93,5,0,8,0.02
2013-12-3,48.3,41.3,34.1,45.0,38.5,30.0,92,89,85,29.93,29.82,4,1,10,0.11
2013-12-4,59.3,51.0,43.8,55.0,48.2,42.0,93,90,82,29.88,29.66,5,1,12,0.00
2013-12-5,57.8,35.2,27.5,53.0,26.4,17.0,84,70,62,30.31,29.68,7,2,14,0.00
2013-12-6,27.9,26.1,23.6,19.0,16.5,12.0,72,67,61,30.56,30.29,5,1,8,0.00
2013-12-7,23.9,20.4,14.3,14.0,10.9,8.0,81,67,55,30.76,30.56,6,1,8,0.00
2013-12-8,26.1,21.2,13.8,23.0,14.5,9.0,89,76,60,30.70,30.09,6,1,10,0.00
2013-12-9,27.0,22.4,14.1,24.0,15.3,4.0,89,74,61,30.31,30.04,13,2,15,0.00
2013-12-10,23.2,14.0,2.2,10.0,3.2,-6.0,70,62,52,30.42,30.16,11,2,19,0.00
2013-12-11,23.6,17.8,13.1,18.0,10.1,3.0,84,72,62,30.62,30.41,6,1,11,0.01
2013-12-12,19.1,10.3,-2.4,9.0,0.2,-11.0,76,64,47,30.65,30.39,8,2,13,0.00
2013-12-13,31.3,22.7,13.5,23.0,13.4,7.0,85,68,55,30.38,30.27,4,0,7,0.00
2013-12-14,26.6,23.9,20.8,23.0,20.3,16.0,88,86,82,30.28,29.97,4,1,10,0.00
2013-12-15,25.8,17.4,9.0,22.0,11.4,2.0,85,77,69,30.22,30.01,4,2,11,0.00
2013-12-16,21.9,15.8,7.9,15.0,9.4,3.0,84,76,63,30.30,30.14,3,0,7,0.00
2013-12-17,27.6,22.3,16.9,23.0,18.2,13.0,87,84,79,30.17,30.06,6,1,12,0.00
2013-12-18,32.9,22.7,13.6,25.0,15.9,11.0,89,76,60,30.31,30.00,1,0,7,0.00
2013-12-19,42.8,37.9,33.9,38.0,34.1,27.0,97,86,74,30.07,29.93,2,0,6,0.00
2013-12-20,42.8,40.7,36.9,43.0,40.5,36.0,100,99,97,29.93,29.85,2,0,3,0.00
2013-12-23,26.0,15.0,5.7,22.0,7.6,-99.9,85,78,73,30.53,30.41,4,-23,8,0.00
2013-12-24,18.3,9.4,2.4,13.0,5.3,-2.0,87,83,75,30.68,30.52,3,0,6,0.00
2013-12-25,25.9,22.1,16.4,25.0,18.5,13.0,96,86,77,30.59,30.21,5,1,9,0.00
2013-12-26,32.0,25.0,18.3,27.0,21.0,15.0,96,85,74,30.41,30.20,5,1,8,0.00
2013-12-27,41.1,35.2,28.3,33.0,30.2,27.0,93,82,69,30.42,30.22,5,1,9,0.00
2013-12-28,49.7,40.5,33.7,37.0,33.2,31.0,89,76,60,30.22,29.98,4,1,10,0.00
2013-12-29,39.4,32.4,21.7,33.0,27.7,18.0,93,83,70,30.19,29.85,4,1,11,0.00
2013-12-30,21.2,16.9,12.5,18.0,12.2,9.0,90,82,72,30.41,30.19,4,0,8,0.00
2013-12-31,14.3,12.5,9.3,12.0,9.1,6.0,92,86,72,30.48,30.27,5,1,7,0.00
2014-1-1,19.1,15.5,12.2,14.0,12.6,9.0,92,88,80,30.44,30.30,0,0,1,0.00
2014-1-2,16.3,11.4,-0.7,11.0,6.9,-3.0,90,82,63,30.50,30.20,0,0,0,0.00